Flag for U.S.A. Weather past 2 weeks in Corvallis, Oregon, U.S.A.

Now
72 °F

Clear.


Feels Like: 77 °F
Forecast: 61 / 99 °F
Wind: 6 mph from Northwest

Location: Corvallis Municipal

Current Time: Jul 28, 2015 at 10:18:21 PM

Latest Report: Jul 28, 2015 at 9:55 PM


Visibility: 10 mi

Pressure: 30.12 "Hg

Humidity: 44%

Dew point: 48 °F

Location of CorvallisLocation

Historic Weather in Corvallis — Graph

°F

Corvallis temperature yesterday

Maximum temperature yesterday: 81 °F (at 5:35 PM)
Minimum temperature yesterday: 52 °F (at 5:55 AM)
Average temperature yesterday: 66 °F

Past Weeks' High & Low Weather Summary

 TemperatureHumidityPressure
High100 °F (Jul 18, 4:15 PM)94% (Jul 15, 6:15 AM)30.25 "Hg (Jul 15, 6:15 AM)
Low46 °F (Jul 24, 4:55 AM)11% (Jul 18, 4:15 PM)29.87 "Hg (Jul 18, 5:35 PM)
Average68 °F57%30.06 "Hg
* Reported Jul 13 8:15 PM — Jul 28 8:55 PM, Corvallis, Weather by CustomWeather, © 2015

Note: Actual official high and low records may vary slightly from our data, if they occured in-between our weather recording intervals... More about our weather records

Advertising

Corvallis weather history for previous 24 hours

 ConditionsComfort  
Time TempWeatherWind HumidityBarometerVisibility
8:55 PM
Tue, Jul 28
79 °FSunny.8 mph34%30.10 "Hg10 mi
8:15 PM84 °FSunny.10 mph29%30.10 "Hg10 mi
7:55 PM84 °FSunny.8 mph29%30.10 "Hg10 mi
7:35 PM86 °FSunny.14 mph25%30.09 "Hg10 mi
7:15 PM88 °FSunny.13 mph24%30.09 "Hg10 mi
6:55 PM88 °FSunny.16 mph22%30.09 "Hg10 mi
6:35 PM88 °FPassing clouds.17 mph22%30.09 "Hg9 mi
5:55 PM90 °FSunny.17 mph21%30.09 "Hg10 mi
5:35 PM90 °FPassing clouds.14 mph21%30.10 "Hg10 mi
5:15 PM90 °FPassing clouds.14 mph22%30.10 "Hg10 mi
4:55 PM90 °FSunny.10 mph22%30.10 "Hg10 mi
4:35 PM88 °FSunny.14 mph24%30.11 "Hg10 mi
4:15 PM88 °FSunny.14 mph24%30.11 "Hg10 mi
3:55 PM88 °FSunny.12 mph24%30.12 "Hg10 mi
3:35 PM88 °FSunny.15 mph22%30.13 "Hg10 mi
3:15 PM86 °FSunny.16 mph25%30.13 "Hg10 mi
2:55 PM84 °FSunny.16 mph27%30.14 "Hg10 mi
2:35 PM84 °FSunny.18 mph27%30.15 "Hg10 mi
2:15 PM82 °FSunny.12 mph30%30.16 "Hg10 mi
1:55 PM82 °FSunny.12 mph30%30.17 "Hg10 mi
1:35 PM82 °FPassing clouds.14 mph30%30.17 "Hg10 mi
1:15 PM81 °FPassing clouds.10 mph32%30.19 "Hg10 mi
12:55 PM79 °FPassing clouds.12 mph34%30.19 "Hg10 mi
12:35 PM79 °FPassing clouds.15 mph34%30.20 "Hg10 mi
12:15 PM79 °FSunny.9 mph34%30.20 "Hg10 mi
11:55 AM77 °FSunny.10 mph39%30.21 "Hg10 mi
11:35 AM75 °FSunny.10 mph41%30.21 "Hg10 mi
11:15 AM73 °FSunny.9 mph47%30.22 "Hg10 mi
10:55 AM73 °FSunny.12 mph47%30.22 "Hg10 mi
10:35 AM70 °FSunny.8 mph50%30.23 "Hg10 mi
10:15 AM70 °FSunny.9 mph50%30.23 "Hg10 mi
9:55 AM68 °FSunny.10 mph53%30.24 "Hg10 mi
9:35 AM66 °FSunny.8 mph56%30.24 "Hg10 mi
9:15 AM64 °FSunny.12 mph60%30.25 "Hg10 mi
8:55 AM64 °FSunny.9 mph60%30.25 "Hg10 mi
8:35 AM63 °FSunny.9 mph64%30.25 "Hg10 mi
8:15 AM63 °FSunny.9 mph64%30.25 "Hg10 mi
7:55 AM61 °FSunny.7 mph68%30.25 "Hg10 mi
7:35 AM57 °FSunny.5 mph72%30.25 "Hg10 mi
7:15 AM55 °FSunny.3 mph77%30.24 "Hg10 mi
6:55 AM54 °FSunny.6 mph82%30.24 "Hg10 mi
6:35 AM52 °FClear.6 mph82%30.24 "Hg10 mi
6:15 AM52 °FClear.7 mph82%30.24 "Hg10 mi
5:55 AM55 °FClear.No wind72%30.24 "Hg10 mi
5:35 AM57 °FClear.6 mph67%30.24 "Hg10 mi
5:15 AM55 °FClear.7 mph72%30.24 "Hg10 mi
4:55 AM55 °FClear.3 mph77%30.24 "Hg10 mi
4:35 AM54 °FClear.5 mph77%30.24 "Hg10 mi
4:15 AM57 °FClear.5 mph72%30.24 "Hg10 mi
3:55 AM55 °FClear.6 mph72%30.24 "Hg10 mi
3:35 AM55 °FClear.5 mph77%30.23 "Hg10 mi
3:15 AM57 °FClear.3 mph72%30.23 "Hg10 mi
2:55 AM55 °FClear.8 mph77%30.23 "Hg10 mi
2:35 AM55 °FClear.7 mph77%30.23 "Hg10 mi
2:15 AM55 °FClear.8 mph77%30.23 "Hg10 mi
1:55 AM55 °FClear.6 mph77%30.23 "Hg10 mi
1:35 AM55 °FClear.6 mph77%30.23 "Hg10 mi
1:15 AM55 °FClear.5 mph77%30.23 "Hg10 mi
12:55 AM57 °FClear.3 mph72%30.23 "Hg10 mi
12:35 AM57 °FClear.6 mph72%30.23 "Hg10 mi
12:15 AM57 °FClear.7 mph72%30.23 "Hg10 mi
11:55 PM
Mon, Jul 27
61 °FClear.7 mph63%30.23 "Hg10 mi
11:35 PM63 °FClear.7 mph59%30.23 "Hg10 mi
11:15 PM63 °FClear.9 mph59%30.23 "Hg10 mi
10:55 PM63 °FClear.8 mph59%30.23 "Hg10 mi
10:35 PM63 °FClear.7 mph59%30.23 "Hg10 mi
10:15 PM64 °FClear.9 mph60%30.22 "Hg10 mi
Weather by CustomWeather, © 2015

See weather overviewHow to use our weather pages